Temp
59 60 61 61 60 59 59 59 60 61 63 64 64 64 63 62 60 61 59 58 58 57
60 58 61 59 58 59 59 60 61 61 62 63 63 63 62 62 60 61 60 58 58 57
58 60 61 60 58 58 60 58 60 61 62 61 62 63 62 61 60 59 59 59 58 57
57 59 59 60 59 57 59 60 61 61 60 60 61 62 61 60 60 59 59 61 59 56
57 60 60 59 59 58 59 61 61 62 61 60 61 62 61 61 62 60 60 59 59 56
56 55 58 59 59 59 59 59 60 62 61 61 60 61 61 60 60 60 60 59 58 55
56 56 56 59 58 59 59 60 60 61 61 61 61 60 59 58 57 57 57 57 57 56
58 57 58 58 58 57 57 58 59 60 60 61 60 59 57 57 56 55 55 55 55 55
57 56 57 57 57 57 57 59 59 59 59 58 58 58 57 56 54 53 52 51 53 55
56 56 56 56 57 57 57 59 58 58 57 56 56 57 56 55 52 51 51 52 52 52
55 55 56 56 55 56 56 56 56 56 56 55 55 56 55 54 51 51 51 51 51 48
53 54 55 55 55 55 56 55 55 55 54 53 53 55 54 53 51 50 51 51 49 48
51 55 54 54 54 55 55 54 54 53 53 53 52 54 55 54 51 49 49 49 48 50
51 53 53 52 52 52 52 52 51 50 51 51 53 53 54 54 51 49 47 45 45 47
MSLP
1007.35 1007.02 1006.01 1005.40 1005.31 1005.93 1006.41 1006.96 1007.36 1006.75 1007.58 1008.69 1008.25 1009.26 1010.12 1010.25 1010.91 1011.59 1012.14 1012.32 1013.14 1013.77
1007.15 1006.99 1006.09 1005.89 1005.68 1005.94 1006.28 1006.53 1007.00 1007.21 1007.36 1007.91 1008.35 1009.27 1009.90 1010.39 1010.86 1011.48 1012.39 1012.77 1013.43 1013.86
1007.43 1006.80 1006.17 1006.24 1006.24 1006.20 1006.36 1006.64 1007.27 1007.10 1007.71 1008.21 1009.42 1008.89 1009.94 1010.58 1010.79 1011.55 1012.91 1013.31 1013.66 1014.29
1007.29 1006.76 1006.41 1006.34 1006.26 1006.53 1006.65 1006.61 1006.40 1006.63 1007.93 1008.97 1009.42 1009.08 1010.19 1010.84 1011.09 1011.95 1013.08 1013.60 1013.87 1014.66
1007.35 1006.82 1006.50 1006.27 1006.34 1006.42 1006.56 1006.29 1006.15 1006.36 1007.52 1008.88 1009.46 1009.56 1010.41 1010.92 1011.58 1012.18 1013.29 1013.74 1014.20 1015.00
1007.63 1007.01 1006.48 1006.04 1006.12 1006.18 1006.23 1006.74 1006.10 1007.14 1007.48 1008.73 1009.42 1009.96 1010.78 1011.32 1012.07 1012.47 1013.66 1013.95 1014.66 1015.40
1007.87 1007.24 1006.27 1005.99 1006.24 1006.08 1006.35 1006.46 1006.93 1007.31 1007.92 1008.65 1009.35 1010.48 1011.35 1011.98 1012.60 1013.33 1014.18 1014.50 1015.17 1015.65
1007.91 1007.05 1005.71 1005.75 1006.09 1006.28 1006.45 1006.82 1007.13 1007.86 1008.60 1009.09 1009.69 1011.10 1011.88 1012.50 1013.22 1013.89 1014.86 1015.27 1015.67 1016.33
1007.96 1007.12 1006.55 1006.33 1006.64 1006.60 1006.87 1007.17 1007.77 1008.43 1008.80 1009.61 1010.68 1011.56 1012.37 1012.94 1013.74 1014.64 1015.40 1015.84 1016.35 1017.24
1008.12 1007.44 1007.04 1006.47 1006.86 1007.05 1007.36 1007.66 1008.18 1008.61 1009.36 1010.32 1011.30 1012.17 1013.03 1013.50 1014.50 1015.21 1016.05 1016.43 1017.16 1018.03
1008.31 1007.70 1007.36 1007.29 1007.42 1007.47 1007.76 1007.94 1008.51 1009.19 1010.18 1010.88 1012.24 1012.82 1013.50 1014.21 1015.20 1015.90 1016.57 1017.17 1018.07 1019.18
1008.54 1007.89 1007.63 1007.49 1007.74 1008.10 1008.28 1008.70 1009.22 1009.72 1010.82 1011.57 1012.87 1013.41 1013.96 1014.54 1015.77 1016.40 1017.39 1018.18 1019.29 1020.22
1008.80 1007.91 1007.79 1007.88 1007.90 1008.45 1008.81 1009.22 1009.95 1010.77 1011.58 1012.40 1013.23 1013.76 1014.27 1014.91 1015.94 1016.73 1018.09 1019.38 1020.47 1021.30
1008.80 1007.92 1007.76 1008.04 1008.06 1008.71 1009.33 1010.11 1010.96 1011.79 1012.61 1013.34 1014.08 1014.62 1014.91 1015.50 1016.30 1017.40 1018.84 1020.25 1021.27 1021.88
Wind_Speed
14 7 7 5 4 6 8 6 5 5 7 6 9 9 8 7 7 8 7 9 6 4
14 9 5 4 7 10 10 8 8 6 10 6 8 9 10 8 9 9 6 7 6 5
12 10 3 4 5 10 10 8 7 9 10 6 4 11 11 8 10 10 5 5 7 5
10 8 2 5 4 3 9 13 13 12 8 5 7 11 10 9 11 10 7 6 9 7
8 10 3 1 4 6 5 7 11 15 16 7 5 11 12 12 11 11 8 9 11 8
9 6 5 3 4 5 5 3 8 9 14 14 9 12 11 11 10 11 8 9 10 8
10 6 10 2 3 6 5 7 7 8 10 12 14 12 12 12 12 12 10 11 10 9
13 5 7 2 5 6 6 7 10 12 10 12 14 10 13 14 14 14 12 12 12 11
11 5 2 2 4 7 7 10 11 12 12 12 9 20 20 17 14 14 15 14 15 13
10 6 1 3 5 7 8 10 11 12 13 14 15 26 25 24 13 14 14 15 15 14
11 4 3 4 6 7 7 10 10 13 13 15 15 27 27 26 15 14 15 15 15 15
14 3 3 5 9 7 9 9 10 12 15 17 15 27 28 22 16 17 14 15 14 13
11 7 4 6 9 6 9 11 9 12 14 20 16 26 28 21 13 17 13 14 14 20
10 6 7 8 7 10 10 12 12 13 12 14 15 17 25 26 14 14 13 10 9 9
Wind_Direction
324 314 325 338 110 97 107 112 89 92 341 250 155 145 141 120 116 114 112 109 103 109
321 316 337 46 125 124 117 105 113 95 57 181 147 133 126 123 116 109 105 106 110 103
311 317 52 104 166 141 132 131 136 119 99 46 232 122 121 119 109 108 107 121 111 104
316 322 28 149 155 194 163 147 122 122 111 114 183 125 115 116 117 113 123 118 112 96
316 337 348 176 194 192 202 160 135 131 144 138 158 115 119 123 123 120 113 109 107 103
328 336 346 352 183 165 161 173 115 140 138 140 132 113 115 113 110 100 106 101 102 102
326 338 330 261 123 124 124 116 119 118 132 138 119 112 111 106 98 92 87 88 90 86
338 277 330 126 93 95 95 111 110 111 111 121 113 119 113 110 105 99 92 86 86 86
325 282 117 152 104 97 88 111 119 119 119 109 109 114 112 117 104 101 97 90 84 87
318 303 115 55 96 100 102 111 117 114 112 109 109 112 111 105 101 102 103 101 98 89
326 283 121 141 116 103 100 103 111 114 115 109 113 114 109 103 100 98 96 96 93 95
338 249 164 151 131 117 110 103 110 115 115 112 119 119 114 108 103 99 92 89 92 96
318 268 152 127 128 112 111 107 109 104 109 117 119 123 118 114 113 103 101 96 98 107
297 261 120 92 88 105 101 102 100 98 103 110 118 116 115 116 110 111 107 104 109 113